Location: Sungai Buloh
(3.1000°N, 113.0000°E)
Time: 16:29:39
(UTC+00:00)

Cosmos 1850 Rocket - Pass Details

Date: 12 January 2026
Orbit: 749 x 781 km, 74.0° (Epoch: 10 February)

Event Time Altitude Azimuth Distance (km) Brightness Sun altitude
Rises 12:22:42 0° 344° (NNW) 3,248 7.2 -25.8°
Reaches altitude 10° 12:25:05 10° 343° (NNW) 2,324 6.4 -26.4°
Maximum altitude 12:30:22 74° 258° (WSW) 811 4.1 -27.6°
Drops below altitude 10° 12:35:39 10° 173° (S) 2,330 6.7 -28.8°
Sets 12:38:02 0° 171° (S) 3,256 7.4 -29.3°
